Location: *
(2.5500°S, 65.9667°W)
Time: 20:15:22
(UTC+00:00)

S-56A Canister/Altair - All Passes

Search period start: 12 April 2024 00:00
Search period end: 22 April 2024 00:00
Orbit: 638 x 2489 km, 38.9° (Epoch: 11 April)

Date Brightness Start Highest point End Pass type
(mag) Time Alt. Az. Time Alt. Az. Time Alt. Az.
12 Apr - 04:07:43 10° NNE 04:09:23 10° NNE 04:11:04 10° NE visible
12 Apr - 06:04:47 10° NNW 06:18:03 39° NE 06:30:40 10° ESE visible
12 Apr - 08:09:52 10° NW 08:25:04 79° SW 08:37:23 10° SE visible
12 Apr - 10:20:56 10° W 10:31:13 25° SW 10:39:30 10° S daylight
12 Apr - 18:56:50 10° SSW 19:01:08 46° SE 19:05:52 10° ENE daylight
12 Apr - 21:01:52 10° WNW 21:05:04 17° NNW 21:08:48 10° N daylight
13 Apr - 05:31:06 10° NNW 05:43:36 34° NE 05:56:01 10° E visible
13 Apr - 07:35:29 10° NW 07:50:45 88° SW 08:03:43 10° SE visible
13 Apr - 09:45:23 10° W 09:57:06 30° SW 10:06:33 10° SSE visible
13 Apr - 18:23:47 10° SSW 18:27:54 34° SE 18:32:08 10° ENE daylight
13 Apr - 20:28:07 10° W 20:31:35 20° NW 20:35:38 10° NNE daylight
14 Apr - 04:57:36 10° NNW 05:09:10 29° NE 05:21:07 10° E visible
14 Apr - 07:01:14 10° NW 07:16:23 83° NE 07:29:54 10° SE visible
14 Apr - 09:10:05 10° WNW 09:22:56 36° SW 09:33:26 10° SSE visible
14 Apr - 17:50:45 10° SSW 17:54:37 25° SE 17:58:22 10° E daylight
14 Apr - 19:54:27 10° W 19:58:11 25° NW 20:02:27 10° NNE daylight
15 Apr - 04:24:17 10° N 04:34:44 25° NE 04:45:53 10° E visible
15 Apr - 06:27:09 10° NW 06:41:58 74° NE 06:55:56 10° SE visible
15 Apr - 08:35:01 10° WNW 08:48:41 42° SW 09:00:09 10° SSE visible
15 Apr - 10:54:41 10° SW 10:56:03 10° SSW 10:57:23 10° SSW daylight
15 Apr - 17:17:46 10° S 17:21:16 20° SE 17:24:33 10° E daylight
15 Apr - 19:20:51 10° WSW 19:24:52 32° NW 19:29:15 10° NNE daylight
16 Apr - 03:51:13 10° N 04:00:21 21° NE 04:10:18 10° E visible
16 Apr - 05:53:13 10° NW 06:07:33 66° NE 06:21:48 10° ESE visible
16 Apr - 08:00:09 10° WNW 08:14:23 48° SW 08:26:43 10° SSE visible
16 Apr - 10:16:00 10° WSW 10:21:46 14° SSW 10:26:56 10° S daylight
16 Apr - 16:44:49 10° S 16:47:51 16° SE 16:50:37 10° ESE daylight
16 Apr - 18:47:17 10° WSW 18:51:35 43° NW 18:56:03 10° NNE daylight
17 Apr - 03:18:28 10° N 03:25:59 17° NE 03:34:15 10° ENE visible
17 Apr - 05:19:24 10° NNW 05:33:08 58° NE 05:47:29 10° ESE visible
17 Apr - 07:25:30 10° WNW 07:40:01 55° SW 07:53:09 10° SSE visible
17 Apr - 09:39:18 10° WSW 09:47:25 17° SW 09:54:35 10° S visible
17 Apr - 16:11:59 10° S 16:14:21 13° SSE 16:16:31 10° ESE daylight
17 Apr - 18:13:46 10° WSW 18:18:22 60° NW 18:22:50 10° NE daylight
18 Apr - 02:46:19 10° NNE 02:51:39 13° NE 02:57:25 10° ENE visible
18 Apr - 04:45:45 10° NNW 04:58:45 51° NE 05:12:59 10° ESE visible
18 Apr - 06:51:02 10° WNW 07:05:36 63° SW 07:19:26 10° SE visible
18 Apr - 09:03:11 10° WSW 09:13:02 21° SW 09:21:45 10° S visible
18 Apr - 15:39:23 10° SSE 15:40:45 11° SSE 15:42:03 10° SE daylight
18 Apr - 17:40:15 10° SW 17:45:09 83° NW 17:49:36 10° NE daylight
19 Apr - 04:12:15 10° NNW 04:24:25 44° NE 04:38:16 10° ESE night (unlit)
19 Apr - 06:16:44 10° WNW 06:31:10 71° SW 06:45:35 10° SE visible
19 Apr - 08:27:29 10° W 08:38:38 25° SW 08:48:38 10° SSE visible
19 Apr - 17:06:43 10° SW 17:11:55 73° SE 17:16:20 10° NE daylight
20 Apr - 03:38:54 10° NNW 03:50:08 37° NE 04:03:21 10° ESE visible
20 Apr - 05:42:38 10° NW 05:56:43 80° SW 06:11:36 10° SE visible
20 Apr - 07:52:06 10° W 08:04:10 29° SW 08:15:18 10° SSE visible
20 Apr - 16:33:10 10° SW 16:38:38 54° SE 16:43:03 10° ENE daylight
20 Apr - 18:40:28 10° WNW 18:42:05 12° NW 18:43:40 10° NNW daylight
21 Apr - 03:05:43 10° NNW 03:15:56 31° NE 03:28:11 10° E visible
21 Apr - 05:08:40 10° NW 05:22:18 89° SW 05:37:27 10° SE visible
21 Apr - 07:17:01 10° W 07:29:42 33° SW 07:41:49 10° SSE visible
21 Apr - 15:59:35 10° SSW 16:05:17 42° SE 16:09:43 10° ENE daylight
21 Apr - 18:05:47 10° W 18:08:43 16° NW 18:11:32 10° N daylight
